Sunshine Coast Airport Observation History
Time Wind Speed Temp Pressure Rel. Hum Rain
04/06:30am SSW 12-15 kts 13.9°c 1025.8 hPa 61% 0.0mm
04/06:00am S 13-19 kts 13.8°c 1025.5 hPa 64% 0.0mm
04/05:30am S 14-19 kts 14.2°c 1025.0 hPa 64% 0.0mm
04/05:00am S 13-20 kts 14.3°c 1024.4 hPa 64% 0.0mm
04/04:30am S 14-20 kts 14.3°c 1023.9 hPa 64% 0.0mm
04/04:00am S 14-19 kts 14.8°c 1023.8 hPa 62% 0.0mm
04/03:30am S 15-21 kts 15.0°c 1024.0 hPa 60% 0.0mm
04/03:00am S 13-17 kts 15.2°c 1024.1 hPa 61% 0.0mm
04/02:30am SSW 12-17 kts 15.1°c 1024.0 hPa 62% 0.0mm
04/02:00am SSW 13-18 kts 15.5°c 1024.0 hPa 62% 0.0mm
04/01:30am SW 8-11 kts 14.6°c 1024.1 hPa 70% 0.0mm
04/01:00am SW 8-10 kts 14.0°c 1024.3 hPa 74% 0.0mm
04/12:30am SW 7-10 kts 12.5°c 1024.3 hPa 80% 0.0mm
04/12:00am SW 6-7 kts 11.6°c 1024.3 hPa 83% 0.0mm
Time Wind Speed Temp Pressure Rel. Hum Rain
03/11:30pm SW 6-7 kts 12.1°c 1024.4 hPa 80% 0.0mm
03/11:00pm SW 7-9 kts 12.3°c 1024.6 hPa 80% 0.0mm
03/10:30pm SW 6-7 kts 12.1°c 1024.7 hPa 81% 0.0mm
03/10:00pm SW 7 kts 11.7°c 1024.7 hPa 81% 0.0mm
03/09:30pm SW 6-7 kts 11.4°c 1024.6 hPa 84% 0.0mm
03/09:00pm SW 4-5 kts 10.8°c 1024.4 hPa 85% 0.0mm
03/08:30pm SW 4-5 kts 10.8°c 1024.1 hPa 85% 0.0mm
03/08:00pm WSW 4-10 kts 10.8°c 1023.8 hPa 86% 0.0mm
03/07:30pm WSW 3-4 kts 11.2°c 1023.3 hPa 82% 0.0mm
03/07:00pm WSW 4-5 kts 11.5°c 1022.7 hPa 80% 0.0mm
03/06:30pm WSW 5 kts 12.2°c 1022.1 hPa 75% 0.0mm
03/06:00pm S 6-7 kts 15.5°c 1021.3 hPa 59% 0.0mm
03/05:30pm SSE 7-8 kts 16.2°c 1021.0 hPa 56% 0.0mm
03/05:00pm SSE 7-9 kts 17.6°c 1020.7 hPa 51% 0.0mm
03/04:30pm SE 8-12 kts 18.3°c 1020.4 hPa 49% 0.0mm
03/04:00pm SE 8-11 kts 18.8°c 1020.0 hPa 47% 0.0mm
03/03:30pm SSE 9-12 kts 19.2°c 1019.7 hPa 45% 0.0mm
03/03:00pm SE 10-12 kts 19.3°c 1019.6 hPa 48% 0.0mm
03/02:30pm S 10-15 kts 20.7°c 1019.4 hPa 33% 0.0mm
03/02:00pm S 11-15 kts 20.5°c 1019.4 hPa 32% 0.0mm
03/01:30pm S 12-15 kts 20.4°c 1019.4 hPa 32% 0.0mm
03/01:00pm S 12-15 kts 19.9°c 1019.6 hPa 32% 0.0mm
03/12:30pm S 9-13 kts 20.3°c 1020.0 hPa 33% 0.0mm
03/12:00pm SSW 3-6 kts 19.9°c 1020.2 hPa 36% 0.0mm
03/11:30am S 5-7 kts 19.5°c 1020.7 hPa 37% 0.0mm
03/11:00am SSW 6-10 kts 19.5°c 1020.9 hPa 35% 0.0mm
03/10:30am SW 8-12 kts 18.5°c 1021.3 hPa 36% 0.0mm
03/10:00am SW 8-11 kts 17.6°c 1021.4 hPa 40% 0.0mm
03/09:30am SW 7-10 kts 16.4°c 1021.6 hPa 43% 0.0mm
03/09:00am WSW 6-7 kts 15.4°c 1021.5 hPa 48% 0.0mm
03/08:30am W 4-6 kts 13.6°c 1021.3 hPa 55% 0.0mm
03/08:00am NNW 2-4 kts 11.9°c 1021.2 hPa 65% 0.0mm
03/07:30am N 4-5 kts 9.6°c 1021.0 hPa 75% 0.0mm
03/07:00am W 3-5 kts 6.9°c 1020.7 hPa 83% 0.0mm
03/06:30am W 7-11 kts 7.8°c 1020.4 hPa 75% 0.0mm
03/06:00am W 7-9 kts 5.3°c 1020.0 hPa 75% 0.0mm
03/05:30am SW 5-6 kts 7.0°c 1019.7 hPa 78% 0.0mm
03/05:00am WNW 5-7 kts 6.4°c 1019.3 hPa 79% 0.0mm
03/04:30am N 2-5 kts 5.6°c 1019.4 hPa 86% 0.0mm
03/04:00am NE 1-4 kts 5.4°c 1019.4 hPa 79% 0.0mm
03/03:30am CALM 0 kts 7.7°c 1019.5 hPa 74% 0.0mm
03/03:00am WSW 8-11 kts 8.4°c 1019.7 hPa 69% 0.0mm
03/02:30am SSW 4-5 kts 8.4°c 1019.9 hPa 72% 0.0mm
03/02:00am W 6-7 kts 8.0°c 1020.0 hPa 70% 0.0mm
03/01:30am NNW 5-6 kts 8.8°c 1020.2 hPa 65% 0.0mm
03/01:00am N 5-7 kts 10.0°c 1020.5 hPa 58% 0.0mm
03/12:30am WNW 8-12 kts 11.3°c 1020.7 hPa 56% 0.0mm
03/12:00am NNW 6-9 kts 8.8°c 1020.7 hPa 63% 0.0mm
Time Wind Speed Temp Pressure Rel. Hum Rain
02/11:30pm W 7-9 kts 9.6°c 1021.0 hPa 63% 0.0mm
02/11:00pm W 3-5 kts 10.3°c 1021.3 hPa 57% 0.0mm
02/10:30pm W 8-9 kts 10.6°c 1021.1 hPa 57% 0.0mm
02/10:00pm W 5-7 kts 9.6°c 1021.2 hPa 62% 0.0mm
02/09:30pm WNW 5-7 kts 9.8°c 1021.4 hPa 65% 0.0mm
02/09:00pm WSW 8-11 kts 12.1°c 1021.2 hPa 53% 0.0mm
02/08:30pm WSW 7-9 kts 10.9°c 1020.9 hPa 64% 0.0mm
02/08:00pm SW 2-6 kts 10.1°c 1020.8 hPa 71% 0.0mm
02/07:30pm W 4-6 kts 10.9°c 1020.4 hPa 69% 0.0mm
02/07:00pm NNW 5 kts 9.6°c 1020.0 hPa 70% 0.0mm
02/06:30pm WSW 9-10 kts 12.3°c 1019.3 hPa 58% 0.0mm
02/06:00pm NNW 4-6 kts 13.5°c 1019.1 hPa 47% 0.0mm
02/05:30pm WNW 6-8 kts 13.8°c 1018.3 hPa 49% 0.0mm
02/05:00pm WSW 5-7 kts 16.5°c 1018.0 hPa 37% 0.0mm
02/04:30pm WSW 11-13 kts 18.5°c 1017.7 hPa 30% 0.0mm
02/04:00pm WSW 11-15 kts 19.4°c 1017.3 hPa 30% 0.0mm
02/03:30pm SW 12-15 kts 19.9°c 1017.3 hPa 27% 0.0mm
02/03:00pm SW 13-17 kts 20.2°c 1017.3 hPa 26% 0.0mm
02/02:30pm WSW 12-19 kts 20.4°c 1017.1 hPa 25% 0.0mm
02/02:00pm WSW 9-14 kts 20.5°c 1017.2 hPa 25% 0.0mm
02/01:30pm WSW 11-16 kts 20.3°c 1017.1 hPa 24% 0.0mm
02/01:00pm WSW 12-21 kts 20.4°c 1017.5 hPa 27% 0.0mm
02/12:30pm SW 13-21 kts 20.0°c 1017.9 hPa 27% 0.0mm
02/12:00pm SW 14-20 kts 19.7°c 1017.9 hPa 27% 0.0mm
02/11:30am WSW 14-19 kts 19.7°c 1018.1 hPa 29% 0.0mm
02/11:00am W 14-19 kts 18.9°c 1018.4 hPa 31% 0.0mm
02/10:30am WSW 16-22 kts 18.2°c 1018.6 hPa 33% 0.0mm
02/10:08am WSW 17-27 kts 17.6°c 1018.6 hPa 32% 0.0mm
02/10:00am WSW 16-23 kts 17.7°c 1018.7 hPa 34% 0.0mm
02/09:30am WSW 14-20 kts 17.4°c 1018.7 hPa 40% 0.0mm
02/09:00am WSW 13-20 kts 16.9°c 1018.7 hPa 47% 0.0mm
02/08:30am WSW 12-21 kts 16.3°c 1018.6 hPa 50% 0.0mm
02/08:00am WSW 13-19 kts 15.8°c 1018.5 hPa 50% 0.0mm
02/07:30am WSW 13-18 kts 15.4°c 1018.5 hPa 53% 0.0mm
02/07:00am WSW 8-11 kts 14.6°c 1018.1 hPa 58% 0.0mm
02/06:30am WSW 5-6 kts 14.2°c 1017.8 hPa 62% 0.0mm
02/06:00am W 5-8 kts 14.5°c 1017.3 hPa 61% 0.0mm
02/05:30am SW 8-12 kts 15.2°c 1017.0 hPa 73% 0.0mm
02/05:00am W 5-7 kts 15.2°c 1016.6 hPa 79% 0.0mm
02/04:30am WNW 7-9 kts 15.4°c 1016.0 hPa 88% 0.0mm
02/04:00am W 7-8 kts 16.4°c 1015.7 hPa 91% 0.0mm
02/03:30am WSW 8-10 kts 17.5°c 1015.7 hPa 90% 0.0mm
02/03:00am SW 6-8 kts 18.0°c 1015.4 hPa 90% 0.0mm
02/02:38am NW 6-9 kts 18.4°c 1015.2 hPa 90% 0.0mm
02/02:30am NW 9-11 kts 18.5°c 1015.1 hPa 89% 0.0mm
02/02:00am NNW 7-10 kts 18.2°c 1015.0 hPa 90% 0.0mm
02/01:56am NNW 7-10 kts 18.1°c 1015.0 hPa 90% 0.0mm
02/01:49am NNW 9-11 kts 18.1°c 1015.0 hPa 90% 0.0mm
02/01:30am NNW 7-9 kts 18.1°c 1015.0 hPa 90% 0.0mm
02/01:00am NW 4-6 kts 18.9°c 1015.4 hPa 86% 0.0mm
02/12:30am NW 9-14 kts 18.5°c 1015.8 hPa 88% 0.0mm
02/12:00am NNW 8-12 kts 18.1°c 1015.6 hPa 88% 0.0mm